Mission Field
KLVM : now visible

Airfield :











YOU CAN JOIN US ON...

 
LOGIN :

Register | Disclaimer

   EN    FR    IT 

 









Legend :    VFR   Marginal VFR   IFR   Intensive IFR   Very Intensive IFR
Visi :
Ceiling :
>= 8 km
>= 3000ft
5 to 8 km
1000 to 3000 ft
1500m to 5 km
500 to 1000 ft
800 to 1500m
200 to 500 ft
< 800m
< 200 ft
Symbols :   Thunderstorms  Fog  Heavy snow  Heavy precipitations  Wind > 20 kt






- Airport Elevation : 4660 ft


KLVM - Mission Field

CURRENT METAR :
  • 290053Z AUTO 25011KT 10SM BKN070 OVC100 08/M01 A3013 RMK AO2 SLP202 T00831011

EXPIRED METARs :
  • 282353Z AUTO 22016KT 10SM BKN065 09/M01 A3013 RMK AO2 SLP199 T00941011 10106 20078 58001
  • 282253Z AUTO 23012KT 10SM BKN070 BKN090 10/00 A3013 RMK AO2 SLP199 T01000000

TAF KLVM
Valid from the 29 at 00:00 until the 30 at 00:00 UTC


282336Z 2900/2924 23016G27KT P6SM BKN070
FM290300 23020G30KT P6SM SCT150
FM290900 23029G48KT P6SM SCT150
KZLC FIR / North America



MET'MAP, your aeronautical weather chart ! - Copyright ORBIFLY December 2007 - Disclaimer

ORBIFLY MET'MAP TEAM :

Programming & Development : Alexandra Zaïnal
Concept & original design : Baudouin d'Aumeries
Assistance for programming : Marc-Olivier Méhu
Technical & hardware support : Manuel Goepfert

Contact : metmap@orbifly.com




SOURCES & CREDITS :

   NOAA       Earth
Advisory